Location: Erching
(49.1117°N, 7.2620°E)
Time: 01:23:37
(UTC+00:00)

Daily predictions for brighter satellites

Satellite Brightness Start Highest point End
(mag) Time Altitude Azimuth Time Altitude Azimuth Time Altitude Azimuth
Cosmos 2333 4.4 00:04:10 10° NW 00:09:46 52° WSW 00:10:14 50° SW
Cosmos 2219 Rocket 2.1 00:04:42 10° NNW 00:10:23 71° WSW 00:11:13 61° SSW
Cosmos 1464 Rocket 3.9 00:08:47 53° S 00:10:24 86° E 00:16:40 10° N
Cosmos 1782 Rocket 3.5 00:12:54 79° WNW 00:12:54 79° WNW 00:17:12 10° N
Lacrosse 4 Rocket 1.4 00:13:01 75° NW 00:13:01 75° NW 00:17:11 10° NNE
FALCON 9 DEB 4.4 00:15:50 40° NNW 00:16:14 42° N 00:19:35 10° ENE
Cosmos 1354 Rocket 3.9 00:16:38 63° SSE 00:17:23 75° ESE 00:22:43 10° NNE
Cosmos 2322 Rocket 4.2 00:14:57 10° WNW 00:17:43 14° W 00:17:43 14° W
Cosmos 968 Rocket 3.6 00:19:13 55° WSW 00:20:06 65° WNW 00:25:13 10° NNE
SL-4 R/B 3.5 00:22:19 23° ENE 00:22:19 23° ENE 00:23:46 10° E
Landsat 4 4.2 00:16:44 10° N 00:20:07 55° NW 00:20:07 55° NW
Cosmos 1908 Rocket 4.4 00:21:10 38° W 00:21:23 38° WNW 00:25:30 10° N
SL-16 R/B 4.1 00:16:47 10° NNW 00:21:39 28° NE 00:26:29 10° ESE
COSMOS 2428 2.8 00:22:49 10° NW 00:28:28 59° WSW 00:29:11 54° SW
SL-16 R/B 3.1 00:28:37 24° SE 00:32:20 56° ENE 00:38:27 10° N
Nadezhda 4 Rocket 3.9 00:27:07 10° NNW 00:33:27 80° W 00:35:18 48° S
Cosmos 2360 Rocket 3.8 00:29:47 10° WNW 00:33:24 19° W 00:33:24 19° W
BREEZE-M TANK 4.3 00:36:08 20° ESE 00:36:08 20° ESE 00:37:37 10° E
CENTAUR R/B 4.1 00:28:35 10° W 00:34:32 37° NNW 00:41:29 10° NE
CZ-2D R/B 3.2 00:31:13 10° NNE 00:36:15 36° E 00:38:05 29° SE
Cosmos 2034 Rocket 3.9 00:35:41 49° SSW 00:37:32 84° W 00:43:54 10° N
USA 267 4.0 00:32:18 10° E 00:38:36 52° NNE 00:44:54 10° WNW
GEOS 3 Rocket 3.7 00:36:11 10° NE 00:41:35 70° SE 00:42:46 53° S
Okean 2 Rocket 2.9 00:41:46 74° SSE 00:42:08 84° E 00:46:40 10° N
Meteor 2-9 Rocket 4.5 00:41:29 45° WSW 00:42:49 56° WNW 00:48:26 10° N
ADEOS II 4.2 00:40:54 10° NE 00:44:30 18° E 00:47:27 12° SE
Cosmos 1975 4.0 00:45:31 32° WNW 00:45:31 32° WNW 00:49:09 10° N
Cosmos 1092 Rocket 4.0 00:39:16 10° N 00:45:35 83° E 00:48:01 40° SSE
Cosmos 1975 Rocket 4.0 00:41:40 10° NNW 00:45:36 35° W 00:45:36 35° W
Cosmos 2297 Rocket 3.0 00:45:36 34° SE 00:47:05 40° ESE 00:52:20 10° NE
Cosmos 2219 3.7 00:45:50 39° SSE 00:47:14 47° ESE 00:52:36 10° NE
Cosmos 1980 3.6 00:41:52 10° NNW 00:47:35 89° ENE 00:49:51 39° SSE
PSLV R/B 4.5 00:43:16 10° N 00:47:37 42° WNW 00:48:26 38° W
Cosmos 2333 Rocket 2.9 00:42:51 10° NW 00:48:02 35° WSW 00:48:11 35° WSW
Helios 1B rocket 2.8 00:44:39 10° N 00:48:39 52° WNW 00:48:49 51° W
Sich 1 Rocket 3.8 00:48:43 53° W 00:49:01 54° WNW 00:53:21 10° N
Cosmos 1777 Rocket 4.3 00:49:00 46° SSE 00:50:12 57° ESE 00:55:24 10° NNE
Meteor 1-29 3.4 00:49:11 10° N 00:52:12 58° NNW 00:52:12 58° NNW
UNK 4.0 00:52:22 40° SE 00:53:55 65° ENE 00:58:33 10° N
Cosmos 44 Rocket 3.5 00:50:14 10° NW 00:55:05 53° WSW 00:55:08 53° SW
Cosmos 2237 Rocket 2.1 00:51:56 10° NNW 00:57:38 83° WSW 00:59:51 39° SSE
Cosmos 1300 Rocket 3.4 00:57:53 68° WSW 00:58:15 73° W 01:02:34 10° N
DELTA 2 DEB (DPAF) 4.0 01:00:27 62° S 01:01:11 85° WSW 01:05:40 10° NNW
Okean 1 Rocket 3.8 01:01:02 37° SE 01:02:03 45° E 01:06:13 10° NNE
Cosmos 1626 4.2 00:59:20 10° NNE 01:02:25 24° ENE 01:04:26 16° ESE
CZ-4C R/B 3.1 01:04:19 66° E 01:04:25 67° ENE 01:07:56 10° N
Spot 1 3.9 01:06:48 63° WSW 01:07:00 64° WSW 01:11:05 10° NNW
Iridium 51 4.3 01:03:56 10° N 01:08:20 72° W 01:08:42 67° SW
Cosmos 2151 Rocket 3.6 01:12:29 57° SW 01:13:10 68° WNW 01:17:34 10° N
Meteor 1-12 Rocket 4.5 01:11:28 41° SW 01:13:32 66° WNW 01:19:32 10° N
Timation 2 Rocket 3.9 01:14:34 39° SW 01:17:01 80° WNW 01:23:07 10° NNE
Cosmos 1707 3.9 01:14:04 10° NNW 01:17:05 29° WNW 01:17:05 29° WNW
In-Cosmos 22 4.3 01:12:11 10° NNW 01:17:42 57° W 01:19:15 42° SSW
Cosmos 1805 3.4 01:24:26 51° SSE 01:25:12 65° E 01:29:04 10° NNE
Meteor 1-15 Rocket 4.2 01:22:53 38° S 01:25:12 85° ESE 01:30:51 10° NNE
SL-14 R/B 4.4 01:22:26 10° N 01:26:11 40° ENE 01:28:23 21° SE
SJ 16-02 2.5 01:25:10 26° SE 01:26:48 35° ESE 01:30:50 10° NE
DNEPR-1 R/B 3.9 01:20:55 10° NW 01:26:56 86° SW 01:31:05 15° SE
ERBS 2.3 01:23:56 10° NW 01:27:14 75° NNE 01:30:32 10° ESE
SAR-Lupe-3 4.4 01:25:08 10° NNE 01:28:44 86° WNW 01:29:06 71° SSW
Cosmos 1538 Rocket 4.2 01:29:31 10° NNW 01:34:30 49° WSW 01:35:50 39° SSW
Cosmos 2227 Rocket 2.2 01:33:34 36° SSW 01:35:59 79° ESE 01:41:41 10° NNE
Cosmos 1025 Rocket 4.2 01:32:29 10° NNW 01:36:05 27° W 01:36:08 27° W
Resurs 1-4 Rocket 2.1 01:31:56 10° NNE 01:37:14 76° WNW 01:39:24 36° SSW
MOZ.5/SAFIR/RUBIN 5/SL-8 4.4 01:36:59 35° WSW 01:37:38 37° W 01:42:04 10° NNW
Cosmos 1674 2.8 01:35:57 10° NNW 01:39:35 51° W 01:39:47 51° WSW
Cosmos 1892 Rocket 4.0 01:38:39 10° N 01:43:06 62° ENE 01:46:08 20° SSE
Cosmos 1733 3.2 01:42:54 44° S 01:43:58 74° E 01:47:49 10° NNE
ATLAS 3B R/B 4.1 01:41:56 10° W 01:47:45 31° NNW 01:53:40 10° NE
USA 215 3.5 01:41:29 10° ENE 01:47:56 58° SE 01:51:29 28° SSW
Cosmos 2279 Rocket 3.9 01:44:46 29° S 01:48:12 86° W 01:54:27 10° N
Cosmos 2026 Rocket 4.3 01:42:45 10° NNW 01:48:32 47° W 01:51:08 30° SW
Cosmos 1461 4.4 01:47:03 22° SSE 01:48:49 30° ESE 01:52:45 10° NE
COBE Rocket 3.7 01:47:34 28° S 01:50:02 82° WSW 01:54:43 10° NNW
Lacrosse 4 Rocket 3.9 01:49:45 10° WNW 01:52:20 15° NW 01:54:54 10° N
Cosmos 2219 Rocket 4.2 01:51:17 10° WNW 01:52:54 12° W 01:52:54 12° W
Cosmos 1634 Rocket 4.3 01:50:26 29° SW 01:53:28 53° WNW 01:59:34 10° N
FALCON 9 DEB 3.5 01:50:07 10° WNW 01:53:36 65° NNE 01:57:04 10° ESE
SL-24 R/B 4.3 01:53:41 28° S 01:56:17 81° W 02:01:20 10° N
Cosmos 2082 3.8 01:53:29 27° S 01:56:32 68° ESE 02:02:08 10° NNE
Cosmos 1340 Rocket 4.3 01:54:19 15° SSE 01:57:03 32° E 02:00:37 10° NNE
SL-4 R/B 1.4 01:58:02 23° WNW 02:00:02 67° SSW 02:03:25 10° ESE
Cosmos 2112 Rocket 4.0 01:54:50 10° NNW 02:00:07 85° ENE 02:05:19 10° SSE
Meteor 1-24 Rocket 3.6 01:59:34 10° NNW 02:05:04 72° W 02:08:55 19° S
CBERS-1 4.0 02:00:56 10° NNE 02:06:05 89° WNW 02:09:09 25° SSW
SL-16 R/B 2.2 02:00:35 10° NNW 02:06:15 66° WSW 02:11:52 10° SSE
Cosmos 1726 4.3 02:04:41 10° SE 02:07:37 23° E 02:10:34 10° NE
Meteor 2-5 Rocket 3.9 02:03:14 10° NNW 02:08:44 53° W 02:11:59 23° SSW
Cosmos 1937 Rocket 4.4 02:06:56 15° S 02:11:00 43° ESE 02:16:02 10° NE
ARIANE 5 R/B 3.2 02:08:24 10° NNE 02:13:32 54° E 02:18:02 13° S
H-2A R/B 3.8 02:11:08 10° SE 02:14:47 31° ENE 02:18:26 10° N
Cosmos 1898 Rocket 3.8 02:11:41 20° S 02:15:17 62° ESE 02:20:27 10° NNE
NPP 4.2 02:10:13 10° N 02:15:22 46° WNW 02:18:23 23° SW
SL-16 R/B 3.4 02:13:43 23° SW 02:16:15 31° W 02:21:44 10° NNW
CZ-2D R/B 2.9 02:11:15 10° N 02:16:20 40° WNW 02:19:24 22° WSW
IDEFIX/ARIANE 42P 3.7 02:11:30 10° NNE 02:16:22 39° E 02:21:13 10° SSE
Cosmos 1680 Rocket 3.5 02:12:42 10° NNW 02:17:53 61° WSW 02:22:58 10° S
NOSS 3-1 (C) 3.9 02:17:24 19° S 02:21:10 50° ESE 02:27:16 10° NE
USA 267 3.2 02:14:50 10° SE 02:21:24 84° SW 02:27:59 10° WNW
AQUA 4.4 02:17:24 10° N 02:21:54 43° WNW 02:24:26 23° SW
Cosmos 1544 Rocket 3.9 02:20:01 16° S 02:23:29 67° E 02:27:57 10° NNE
ADEOS II 2.1 02:19:29 10° N 02:24:45 72° WNW 02:28:24 20° SSW
Cosmos 1607 4.1 02:18:47 10° NW 02:25:02 53° WSW 02:31:16 10° SSE
Cosmos 990 Rocket 4.0 02:23:19 20° SSW 02:26:56 83° ESE 02:32:09 10° NNE
Cosmos 1766 4.3 02:26:32 23° WSW 02:28:00 31° WNW 02:31:30 10° N
IRS-1D 3.7 02:23:38 10° N 02:28:34 57° WNW 02:31:54 21° SW
Cosmos 2263 Rocket 3.5 02:24:31 10° SSE 02:29:27 33° ESE 02:34:24 10° NE
Meteor 1-22 Rocket 4.2 02:27:12 21° SSW 02:30:36 58° WNW 02:35:51 10° N
Cosmos 2297 Rocket 3.0 02:27:24 18° WSW 02:31:09 40° NW 02:36:29 10° NNE
Cosmos 2219 4.2 02:27:45 17° WSW 02:31:32 35° NW 02:36:42 10° NNE
Okean 1-7 Rocket 3.7 02:27:19 10° NNW 02:31:40 57° W 02:35:04 16° S
IRS-1C 4.1 02:29:00 10° NNE 02:34:22 82° WNW 02:38:43 16° SSW
Cosmos 1626 3.2 02:34:27 10° NNW 02:37:40 28° W 02:38:57 22° SW
Cosmos 2266 Rocket 4.1 02:32:17 10° NNW 02:38:34 60° W 02:44:42 10° S
Cosmos 1655 Rocket 4.4 02:33:24 10° NNW 02:39:20 46° W 02:44:28 14° SSW
Meteor 1-28 Rocket 3.3 02:36:22 15° S 02:39:25 57° W 02:43:11 10° NNW
Cosmos 2237 Rocket 3.8 02:37:54 10° WNW 02:40:47 14° W 02:41:37 14° WSW
Cosmos 1602 Rocket 3.9 02:36:42 10° N 02:41:05 65° E 02:45:23 10° SSE
CZ-4B R/B 4.1 02:37:21 10° N 02:41:46 38° WNW 02:44:51 18° SW
Cosmos 1470 2.9 02:41:43 19° SSW 02:44:26 62° WNW 02:48:24 10° N
Cosmos 1603 3.9 02:40:03 10° NNW 02:45:50 78° ENE 02:51:33 10° SSE
SL-08 R/B 3.7 02:44:01 10° S 02:48:47 48° W 02:53:37 10° NNW
Cosmos 2098 Rocket 4.0 02:49:10 10° NNW 02:53:36 42° W 02:59:05 10° SSW
USA 229 DEB 3.8 02:48:34 14° SSW 02:54:17 72° SE 03:01:10 10° NE
USA 229 3.8 02:48:40 14° SSW 02:54:22 71° SE 03:01:14 10° NE
OPS 8737 4.2 02:56:59 17° SW 02:59:37 80° NW 03:02:36 10° NE
ERBS 3.9 03:01:02 10° W 03:03:33 16° SW 03:05:13 10° SSW
Meteor 2-14 Rocket 4.4 02:57:22 10° NNW 03:03:26 73° W 03:09:28 10° S
NOSS 2-3 (C) 4.2 03:01:07 11° SSW 03:05:08 54° SE 03:10:04 10° NE
NOSS 3-1 (A) 3.7 03:00:07 11° SSW 03:05:24 62° SE 03:11:44 10° NE
SJ 16-02 2.5 03:02:10 13° WSW 03:05:25 30° WNW 03:09:20 10° N
CSL-04 DEB 4.4 03:06:22 10° S 03:10:13 58° WSW 03:14:07 10° NNW
MSX 4.0 03:06:41 10° NNE 03:12:29 79° ESE 03:18:15 10° SSW
Cosmos 1943 3.2 03:07:25 10° NNW 03:13:04 81° WSW 03:18:41 10° SSE
Cosmos 1626 Rocket 3.9 03:09:49 10° NNW 03:13:58 45° W 03:18:03 10° SSW
Cosmos 1455 Rocket 4.2 03:11:32 12° SW 03:14:57 29° WNW 03:18:51 10° N
Resurs 1-4 Rocket 4.1 03:13:25 10° NNW 03:16:12 15° NW 03:18:59 10° W
Cosmos 1758 4.2 03:13:24 12° SW 03:16:50 34° WNW 03:20:33 10° N
Spot 4 Rocket 4.1 03:11:58 10° N 03:17:06 65° WNW 03:22:11 10° SSW
Meteor 1-21 Rocket 4.3 03:12:18 10° NNW 03:17:46 59° W 03:23:10 10° S
Cosmos 2227 Rocket 3.7 03:16:07 10° W 03:20:42 24° NW 03:25:17 10° NNE
SeaSat 1 2.9 03:16:23 10° NE 03:21:18 63° ESE 03:26:11 10° SSW
Landsat 5 3.4 03:21:10 10° S 03:24:58 54° WSW 03:28:57 10° NNW
CZ-2C R/B 2.8 03:21:24 10° N 03:25:17 67° WNW 03:29:05 10° SSW
CZ-2D R/B 4.0 03:22:58 10° N 03:26:50 42° WNW 03:30:36 10° SW
Cosmos 1461 3.7 03:23:32 10° WSW 03:27:46 45° NW 03:32:12 10° NNE
Cosmos 1048 Rocket 4.1 03:24:36 10° NNW 03:29:47 85° ENE 03:34:57 10° SSE
FALCON 9 DEB 3.9 03:27:21 10° WNW 03:30:29 31° SW 03:33:36 10° SSE
USA 215 3.6 03:24:34 10° NE 03:31:02 64° NNW 03:37:28 10° WSW
Cosmos 2227 4.3 03:25:36 10° SSW 03:31:23 81° WNW 03:37:11 10° NNE
Cosmos 1758 Rocket 3.5 03:27:40 10° NNW 03:31:59 75° W 03:36:17 10° S
ATLAS CENTAUR R/B 3.5 03:29:57 10° SSE 03:33:08 22° ESE 03:36:12 10° ENE
Cosmos 1340 Rocket 4.2 03:30:15 10° WSW 03:33:32 24° WNW 03:36:50 10° NNW
ERS-2 2.5 03:32:47 10° S 03:36:15 42° W 03:39:46 10° NNW
Cosmos 2228 3.4 03:33:18 10° S 03:37:38 70° E 03:42:02 10° NNE
SL-4 R/B 3.3 03:37:06 10° WSW 03:39:03 15° SW 03:41:01 10° S
Cosmos 1953 3.0 03:36:01 10° SW 03:39:45 37° WNW 03:43:33 10° N
